Weather in Panovy Kusty

Russia / Tambov Oblast     52°05′19″N   41°34′28″E
temp.,
°C
wind,
m/s
gust,
m/s
humid.,
%
clouds,
%
prec.,
mm/h
press.,
hPa
HPBL,
m
30 june, thu
thu3000:00+12ene22740 0.0 101912
03:00+11nne11800 0.0 101910
06:00+14n12725 0.0 101881
09:00+19nnw22571 0.0 1017718
12:00+22nnw34464 0.0 10161908
15:00+23nnw46435 0.0 10152276
18:00+21nnw575565 0.0 1014789
21:00+16nnw34750 0.0 101452
1 july, fri
fri100:00+14wnw36804 0.0 101486
03:00+13wnw498340 0.1 1013168
06:00+14nnw511770 0.0 1012378
09:00+16nne810555 0.0 10141288
12:00+18nne810425 0.0 10152139
15:00+15nne8115224 0.0 10161636
18:00+11n813735 0.1 10171078
21:00+10n612763 0.1 1018710
2 july, sat
sat200:00+8nnw614904 0.0 1017378
03:00+10nnw817780 0.0 1016484
06:00+12n716761 0.0 1017607
09:00+18n914565 0.0 10171448
12:00+21n811445 0.0 10162043
15:00+22n710395 0.0 10152370
18:00+20n6125481 0.0 1015688
21:00+15nw4107399 0.0 1016166
3 july, sun
sun300:00+17nw4971100 0.0 1015218
03:00+14nw478290 0.0 1014125
06:00+15nw378374 0.1 1014207
09:00+20nnw457185 0.7 1014618
12:00+24n47540 1.0 10131628
15:00+24nnw375885 1.1 1013402
18:00+24nnw585872 0.0 1013531
21:00+18nne22750 0.0 101415
4 july, mon
mon400:00+16nne358113 0.0 101566
03:00+14nne35931 0.0 101576
06:00+16nne36844 0.0 1016171
09:00+21nne456514 0.0 10161012
12:00+24ne5551100 0.1 10171939
15:00+24ne554398 0.1 10172102
18:00+23ne355130 0.0 1018669
21:00+17ene116710 0.0 101811